Regional Weather Roundup
Issued by NWS Bismarck, ND

Home | Current Version | Previous Version | Text Only | Print | Product List | Glossary On
Versions: 1 2 3 4 5 6 7 8 9 10 11 12 13 14 15 16 17 18 19 20 21 22 23 24 25 26 27 28 29 30 31 32 33 34 35 36 37 38 39 40 41 42 43 44 45 46 47 48 49 50
369
ASUS43 KBIS 210702
RWRBIS

NWR BROADCAST TEXT
NATIONAL WEATHER SERVICE BISMARCK ND
100 AM CST TUE FEB 21 2017

NOTE: "FAIR" INDICATES FEW OR NO CLOUDS BELOW 12,000 FEET WITH NO
SIGNIFICANT WEATHER AND/OR OBSTRUCTIONS TO VISIBILITY.


CITY           SKY/WX    TMP DP  RH WIND       PRES   REMARKS
WILLISTON      CLOUDY    38  30  73 S6        29.63F
MINOT          CLOUDY    40  30  67 CALM      29.67S
MINOT AFB      FAIR      37  30  74 W3        29.67R
BISMARCK       CLOUDY    36  32  85 E6        29.72F
DICKINSON      FAIR      38  26  62 S10       29.63S
GARRISON         N/A     36  31  82 E8        29.65F
HETTINGER ARPT FAIR      41  27  57 S6        29.68F
JAMESTOWN      MOCLDY    30  30 100 S6        29.74F
CARRINGTON     PTSUNNY   32  30  93 SW5       29.74F
HAZEN            N/A    N/A N/A N/A CALM      29.67F
MANDAN         CLOUDY    37  32  81 SE6       29.71F
STANLEY        CLOUDY    37  37 100 CALM      29.67F
$$

CITY           SKY/WX    TMP DP  RH WIND       PRES   REMARKS
GRAND FORKS    FAIR      30  25  81 S6        29.74R
GRAND FORKS AF FAIR      28  28  99 CALM      29.73S
DEVILS LAKE    MOCLDY    31  30  96 CALM      29.72F
FARGO          FAIR      33  32  96 S8        29.77R
CAVALIER       FOG       27  27 100 CALM      29.72S VSB<1/4
GRAFTON        FAIR      27  27 100 SW5       29.74S FOG
GWINNER        FAIR      34  34 100 SW8       29.79S
ROLLA          FAIR      28  28 100 SW8       29.69S
$$

CITY           SKY/WX    TMP DP  RH WIND       PRES   REMARKS
ABERDEEN       FAIR      32  30  92 S8        29.82R
MOBRIDGE       FAIR      38  30  73 SE13      29.70F
BUFFALO          N/A     49  31  49 W17       29.63R
RAPID CITY     FAIR      59  28  30 SW23G33   29.76F
GLASGOW        FAIR      38  34  85 W12       29.61S
SIDNEY         FAIR      35  27  72 CALM      29.64S
WOLF POINT     FAIR      34  31  88 W6        29.63R
GLENDIVE       FAIR      34  28  79 NW3       29.65S
MILES CITY     FAIR      48  29  47 W10       29.68R
BAKER          FAIR      35  27  72 W6        29.69R
$$

CITY           SKY/WX    TMP DP  RH WIND       PRES   REMARKS
BILLINGS       MOCLDY    47  32  56 SW15      29.70S
GREAT FALLS    FAIR      38  30  73 SW17      29.64R
$$





USA.gov is the U.S. government's official web portal to all federal, state and local government web resources and services.